This is the latest recevied weather packets stored in our database for station/object NI0Z. If no packets are shown the sender has not sent any weather packets the latest 10 day(s).
| Time | Temp. | Humidity | Pressure | Rain* | Wind** | Luminosity | Snow |
|---|---|---|---|---|---|---|---|
| 1777869026 | 15.56° C | 67% | - | 0 mm | - | - | - |
| 1777868723 | 16.11° C | 67% | - | 0 mm | - | - | - |
| 1777868420 | 16.11° C | 65% | - | 0 mm | - | - | - |
| 1777868116 | 16.67° C | 64% | - | 0 mm | - | - | - |
| 1777867812 | 16.67° C | 62% | - | 0 mm | - | - | - |
| 1777867510 | 17.22° C | 62% | - | 0 mm | - | - | - |
| 1777867206 | 17.22° C | 62% | - | 0 mm | - | - | - |
| 1777866903 | 17.22° C | 61% | - | 0 mm | - | - | - |
| 1777866599 | 17.78° C | 62% | - | 0 mm | - | - | - |
| 1777866297 | 17.78° C | 60% | - | 0 mm | - | - | - |
| 1777865994 | 17.78° C | 60% | - | 0 mm | - | - | - |
| 1777865692 | 17.78° C | 61% | - | 0 mm | - | - | - |
| 1777865389 | 18.33° C | 61% | - | 0 mm | - | - | - |
| 1777865086 | 18.33° C | 60% | - | 0 mm | - | - | - |
| 1777864782 | 17.78° C | 59% | - | 0 mm | - | - | - |
| 1777864479 | 17.78° C | 63% | - | 0 mm | - | - | - |
| 1777864176 | 17.78° C | 62% | - | 0 mm | - | - | - |
| 1777863873 | 18.33° C | 62% | - | 0 mm | - | - | - |
| 1777863569 | 18.89° C | 60% | - | 0 mm | - | - | - |
| 1777863266 | 18.33° C | 57% | - | 0 mm | - | - | - |
| 1777862963 | 18.89° C | 59% | - | 0 mm | - | - | - |
| 1777862660 | 18.89° C | 58% | - | 0 mm | - | - | - |
| 1777862357 | 19.44° C | 57% | - | 0 mm | - | - | - |
| 1777862054 | 19.44° C | 56% | - | 0 mm | - | - | - |
| 1777861749 | 20° C | 55% | - | 0 mm | - | - | - |
* Rain latest hour (hover to see other rain measurements)
** Current wind speed in m/s (hover to see current wind gust speed)